{"data":{"norad_id":68634,"epoch":"2026-09-20T00:37:43.920192Z","epoch_age_seconds":104146,"freshness":"FRESH","line1":"1 68634U 26074H   26263.02620278  .00007286  00000+0  27165-3 0  9998","line2":"2 68634  60.0195 172.0715 0035157  97.9112 262.5963 15.27863106 25282","mean_motion":15.27863106,"eccentricity":0.0035157,"inclination_deg":60.0195,"raan_deg":172.0715,"arg_perigee_deg":97.9112,"mean_anomaly_deg":262.5963,"bstar":0.00027165,"rev_number":2528,"period_min":94.249281519073,"perigee_km":458.08261364593,"apogee_km":506.32039781513,"semimajor_km":6860.3385057305,"source":"CELESTRAK","updated_at":"2026-09-20T09:00:24.366304Z"}}